Location: Newark
(7.0858°N, 171.3717°E)
Time: 06:49:16
(UTC+00:00)

Courier 1B - Pass Details

Date: 03 December 2020
Orbit: 962 x 1209 km, 28.3° (Epoch: 19 January)

Event Time Altitude Azimuth Distance (km) Brightness Sun altitude
Rises 08:13:54 0° 279° (W) 3,630 11.4 -28.0°
Reaches altitude 10° 08:17:17 10° 295° (WNW) 2,684 10.3 -28.7°
Maximum altitude 08:21:54 20° 341° (NNW) 2,051 9.1 -29.8°
Enters shadow 08:22:00 20° 343° (NNW) 2,052 9.1 -29.8°
Drops below altitude 10° 08:26:37 10° 28° (NNE) 2,732 - -30.9°
Sets 08:30:06 0° 44° (NE) 3,716 - -31.7°
